User: anonymous   Login
Location: Unspecified
(0.0000°N, 0.0000°E)
Time: 22:28:42
(UTC+00:00)
Language:

STARLINK-33916 - Orbit

View from above orbital plane
View from above orbital plane
View from above satellite
View from above satellite

Ground track
Ground track

The orbit is defined by the following mean orbital elements,

1 63792U          26144.96035117 +.00000000 +00000-0 +60640-3 0 00008
2 63792  43.0001 342.0632 0001579 267.2526  92.8145 15.27592155    00
Epoch (UTC): 24 May 2026 23:02:54
Eccentricity: 0.0001579
inclination: 43.0001°
perigee height: 482 km
apogee height: 484 km
right ascension of ascending node: 342.0632°
argument of perigee: 267.2526°
revolutions per day: 15.27592155
mean anomaly at epoch: 92.8145°

The dashed part of the orbit path shows where the satellite is in the earth's shadow,  

DLR